Location: Beccas
(43.4309°N, 0.1528°E)
Time: 10:38:44
(UTC+00:00)

ATLAS 5 CENTAUR R/B - Pass Details

Date: 15 October 2021
Orbit: 497 x 1159 km, 63.4° (Epoch: 25 November)

Event Time Altitude Azimuth Distance (km) Brightness Sun altitude
Rises 18:57:51 0° 208° (SSW) 2,574 5.0 -19.2°
Reaches altitude 10° 18:59:56 10° 205° (SSW) 1,714 4.1 -19.6°
Maximum altitude 19:03:40 67° 124° (ESE) 583 1.1 -20.3°
Enters shadow 19:04:00 63° 90° (E) 605 1.1 -20.3°
